AirNav   Everest Fuels
 
 468 users online  

SC23 Eagles Nest-Fairview Airpark
Pelion, South Carolina, USA

GOING TO PELION?


FAA INFORMATION EFFECTIVE 03 NOVEMBER 2022

Location

FAA Identifier: SC23
Lat/Long: 33-45-50.5380N 081-21-31.3660W
33-45.842300N 081-21.522767W
33.7640383,-81.3587128
(estimated)
Elevation: 460 ft. / 140 m (estimated)
Variation: 04W (1985)
From city: 6 miles W of PELION, SC
Time zone: UTC -5 (UTC -4 during Daylight Saving Time)
Zip code: 29070

Airport Operations

Airport use: Private use. Permission required prior to landing
Activation date: 08/1966
Control tower: no
ARTCC: JACKSONVILLE CENTER
FSS: ANDERSON FLIGHT SERVICE STATION
Attendance: CONTINUOUS
Wind indicator: yes
Segmented circle: no

Airport Communications

WX ASOS at CAE (16 nm NE): 120.15 (803-822-4168)
WX AWOS-3 at AIK (18 nm SW): 118.025 (803-643-8664)

Nearby radio navigation aids

VOR radial/distance  VOR name  Freq  Var
CAEr252/16.2COLUMBIA VORTAC114.7002W
MMTr259/29.3MC ENTIRE VORTAC113.2008W

 
NDB name  Hdg/Dist  Freq  Var  ID
AIKEN073/17.334706WAIK .- .. -.-
ENOREE164/35.627807WEOE . --- .
EMORY064/36.738504WEMR . -- .-.

Airport Services

Airframe service: NONE
Powerplant service: NONE

Runway Information

Runway 2/20

Dimensions: 2700 x 180 ft. / 823 x 55 m
Surface: turf
RUNWAY 2  RUNWAY 20
Traffic pattern: leftleft
Obstructions: treestrees

Runway 3/21

Dimensions: 1500 x 200 ft. / 457 x 61 m
Surface: turf
RUNWAY 3  RUNWAY 21
Traffic pattern: leftleft
Obstructions: treestrees

Airport Ownership and Management from official FAA records

Ownership: Privately-owned
Owner: KAREN MAGILL
2724 KILLIAN ROAD
EDGEMOOR, SC 29712
Phone 704-941-9915
Manager: KAREN MAGILL
4577 CALKS FERRY RD
LEESVILLE, SC 29070
Phone 704-941-9915

Airport Operational Statistics

Aircraft based on the field: 2
Single engine airplanes: 2
    

Additional Remarks

FOR CD CTC COLUMBIA APCH AT 803-822-5242 OR 803-822-5040.

Instrument Procedures

There are no published instrument procedures at SC23.

Some nearby airports with instrument procedures:

6J0 - Lexington County Airport (6 nm E)
KCAE - Columbia Metro Airport (16 nm NE)
KXNO - North Air Force Auxiliary Field (17 nm SE)
KAIK - Aiken Regional Airport (18 nm SW)
KCUB - Jim Hamilton L B Owens Airport (22 nm NE)
 
Loc | Ops | Rwys | IFR | FBO | Links
Com | Nav | Svcs | Stats | Notes
Area around SC23 (Eagles Nest-Fairview Airpark)
 
Road maps at: MapQuest Bing Google
 
Aerial photo
No photo
 
Sectional chart

 
Airport distance calculator
Flying to Eagles Nest-Fairview Airpark? Find the distance to fly.

From to SC23

Sunrise and sunset
Times for 29-Nov-2022
 Local
(UTC-5)
 Zulu
(UTC)
Morning civil twilight06:4411:44
Sunrise07:1112:11
Sunset17:1622:16
Evening civil twilight17:4322:43

Current date and time
Zulu (UTC)  29-Nov-2022 08:53:38
Local (UTC-5)  29-Nov-2022 03:53:38
 
METAR
KCAE 
16nm NE 
290756Z 00000KT 10SM CLR 06/05 A3011 RMK AO2 SLP195 T00610050
KXNO 
17nm SE 
290755Z AUTO 00000KT 10SM CLR 06/06 A3011 RMK AO2 SLP199 T00560056 $
KAIK 
18nm SW 
290835Z AUTO 00000KT 10SM CLR 04/04 A3011 RMK AO2 T00440037
KCUB 
22nm NE 
290753Z AUTO 00000KT 10SM CLR 07/06 A3012 RMK AO2 SLP199 T00670061
KMMT 
30nm E 
290755Z AUTO 07003KT 10SM CLR 06/06 A3009 RMK AO2 SLP192 T00630062 $
KBNL 
30nm S 
290835Z AUTO 00000KT 10SM CLR 05/04 A3011 RMK AO2
KOGB 
31nm SE 
290753Z AUTO 00000KT 9SM CLR 07/06 A3011 RMK AO2 SLP194 T00720061
TAF
KCAE 
16nm NE 
290530Z 2906/3006 00000KT P6SM SKC FM291500 12005KT P6SM SKC
NOTAMs
Click for the latest NOTAMs
NOTAMs are issued by the DoD/FAA and will open in a separate window not controlled by AirNav.

 

 
 

Would you like to see your business listed on this page?

 If your business provides an interesting product or service to pilots, flight crews, aircraft, or users of the Eagles Nest-Fairview Airpark, you should consider listing it here.  To start the listing process, click on the button below
 
Add a business
 

Other Pages about Eagles Nest-Fairview Airpark

Update a link
 
Copyright © AirNav, LLC. All rights reserved. Privacy Policy  Contact